User: anonymous   Login
Location: *
(40.7765°S, 106.5327°E)
Time: 14:27:44
(UTC+00:00)
Language:

USA 306 - Orbit

View from above orbital plane
View from above orbital plane
View from above satellite
View from above satellite

Ground track
Ground track

The orbit data is extracted from the following two-line orbital elements,

1 45874U 20046B   22221.01421970 0.00009000  00000-0  60203-3 0    09
2 45874  53.9792 244.4231 0004944 112.1954 247.8045 15.06474847    05
Epoch (UTC): 09 August 2022 00:20:28
Eccentricity: 0.0004944
inclination: 53.9792°
perigee height: 543 km
apogee height: 550 km
right ascension of ascending node: 244.4231°
argument of perigee: 112.1954°
revolutions per day: 15.06474847
mean anomaly at epoch: 247.8045°
orbit number at epoch: 0

The dashed part of the orbit path shows where the satellite is in the earth's shadow,  

DLR